Total_Precipitation_Accumulation
0.68 0.93 1.18 1.12 1.04 1.12 1.18 1.30 1.33 1.25 0.95 0.96 0.99 0.89 0.88 0.88 0.89 0.82 0.72 0.61 0.59 0.60 0.58 0.57 0.62 0.70 0.71 0.75 0.77 0.79 0.76 0.82 0.85 0.90 1.04 1.29 1.55 1.66 1.79 1.69 1.45 1.39 1.52 1.84
0.76 0.81 0.70 0.65 0.76 0.97 1.13 1.35 1.32 1.19 0.84 0.79 0.85 0.77 0.69 0.70 0.75 0.66 0.62 0.60 0.54 0.54 0.50 0.48 0.51 0.57 0.60 0.61 0.68 0.73 0.73 0.80 0.83 0.88 1.06 1.23 1.39 1.40 1.56 1.68 1.61 1.52 1.51 1.71
0.73 0.66 0.55 0.61 0.76 1.00 1.10 1.14 1.11 1.08 0.88 0.78 0.78 0.84 0.65 0.58 0.61 0.55 0.50 0.52 0.49 0.50 0.51 0.49 0.47 0.52 0.54 0.52 0.53 0.58 0.63 0.71 0.84 0.96 1.17 1.39 1.62 1.70 1.70 1.60 1.68 1.68 1.58 1.65
0.66 0.55 0.54 0.67 0.75 0.84 1.04 0.76 0.70 0.77 1.01 1.08 0.88 1.10 0.76 0.63 0.66 0.57 0.48 0.44 0.42 0.45 0.49 0.58 0.55 0.56 0.53 0.52 0.54 0.58 0.67 0.81 1.00 1.19 1.40 1.61 1.80 1.86 1.73 1.72 1.75 1.63 1.54 1.52
0.60 0.50 0.51 0.64 0.61 0.59 0.71 0.61 0.59 0.68 0.92 0.91 0.69 0.84 0.75 0.62 0.73 0.66 0.54 0.47 0.42 0.42 0.45 0.51 0.53 0.59 0.62 0.65 0.72 0.78 0.91 1.12 1.36 1.55 1.81 2.09 2.06 1.95 1.86 1.78 1.74 1.69 1.67 1.61
0.51 0.43 0.47 0.49 0.47 0.46 0.51 0.64 0.72 0.78 1.00 1.00 0.61 0.71 0.77 0.59 0.61 0.66 0.60 0.51 0.43 0.39 0.46 0.58 0.67 0.80 0.92 0.98 1.15 1.35 1.56 1.68 1.77 1.87 2.01 2.13 2.09 2.10 2.06 1.85 1.73 1.70 1.74 1.78
0.55 0.46 0.39 0.36 0.49 0.50 0.56 0.96 1.38 1.40 1.35 0.96 0.48 0.68 0.75 0.54 0.46 0.52 0.54 0.44 0.38 0.41 0.52 0.69 0.88 1.04 1.20 1.39 1.59 1.72 1.85 1.98 1.93 1.89 1.95 2.00 2.00 1.99 2.00 1.93 1.84 1.76 1.72 1.73
0.63 0.59 0.39 0.32 0.41 0.55 0.59 0.86 1.40 1.54 1.25 0.85 0.61 0.88 0.81 0.58 0.45 0.41 0.34 0.30 0.41 0.56 0.69 0.82 0.92 1.06 1.27 1.49 1.60 1.63 1.72 1.83 1.80 1.75 1.74 1.74 1.78 1.80 1.76 1.69 1.67 1.73 1.81 1.76
0.47 0.47 0.27 0.25 0.30 0.41 0.58 0.62 0.69 0.99 0.82 0.80 0.80 0.92 0.81 0.54 0.47 0.41 0.36 0.38 0.54 0.76 0.96 1.13 1.25 1.39 1.46 1.55 1.66 1.57 1.61 1.69 1.68 1.62 1.58 1.62 1.59 1.64 1.64 1.56 1.57 1.59 1.62 1.53
0.32 0.39 0.27 0.24 0.31 0.36 0.47 0.60 0.80 1.16 1.31 1.26 1.09 1.06 0.96 0.72 0.62 0.64 0.70 0.78 0.84 0.94 1.20 1.51 1.80 1.98 1.82 1.60 1.55 1.55 1.51 1.55 1.68 1.70 1.63 1.60 1.64 1.63 1.59 1.60 1.52 1.50 1.55 1.48
0.27 0.40 0.37 0.32 0.36 0.39 0.49 0.66 0.83 1.08 1.19 1.49 1.66 1.52 1.14 1.13 1.12 1.16 1.24 1.27 1.28 1.37 1.35 1.53 1.76 1.97 1.91 1.62 1.39 1.43 1.52 1.58 1.65 1.63 1.63 1.62 1.57 1.45 1.43 1.46 1.44 1.41 1.42 1.47
0.24 0.37 0.43 0.35 0.32 0.39 0.58 0.74 0.94 1.33 1.24 1.21 1.51 1.55 1.19 1.17 1.21 1.29 1.43 1.48 1.48 1.39 1.29 1.29 1.36 1.44 1.54 1.45 1.27 1.23 1.38 1.50 1.52 1.50 1.54 1.54 1.43 1.32 1.31 1.30 1.24 1.11 1.04 1.04
0.29 0.43 0.59 0.60 0.64 0.61 0.80 0.86 0.75 0.80 0.94 1.06 1.34 1.26 0.83 0.75 0.92 1.09 1.25 1.32 1.26 1.23 1.33 1.31 1.22 1.16 1.21 1.22 1.18 1.16 1.29 1.44 1.53 1.52 1.41 1.31 1.25 1.22 1.23 1.17 1.12 1.04 0.90 0.84
0.29 0.37 0.51 0.73 0.73 0.65 0.82 0.92 0.80 0.78 0.95 0.90 0.85 0.77 0.60 0.61 0.75 0.85 0.90 0.90 0.92 1.03 1.09 1.06 1.02 0.95 0.96 1.02 1.07 1.12 1.24 1.32 1.47 1.60 1.50 1.37 1.28 1.25 1.23 1.20 1.15 1.06 0.97 0.93
0.25 0.26 0.24 0.28 0.31 0.39 0.56 0.66 0.61 0.55 0.54 0.64 0.57 0.56 0.60 0.65 0.72 0.70 0.66 0.66 0.67 0.71 0.75 0.80 0.86 0.84 0.76 0.74 0.73 0.84 0.99 1.17 1.37 1.62 1.63 1.48 1.42 1.39 1.27 1.20 1.19 1.13 1.11 1.04
0.21 0.23 0.20 0.19 0.20 0.26 0.37 0.41 0.35 0.31 0.39 0.49 0.53 0.59 0.62 0.66 0.72 0.67 0.59 0.54 0.49 0.50 0.55 0.63 0.70 0.77 0.67 0.57 0.56 0.58 0.69 0.93 1.12 1.32 1.42 1.42 1.35 1.24 1.20 1.20 1.16 1.08 1.04 0.99
0.21 0.25 0.28 0.21 0.19 0.26 0.37 0.33 0.33 0.38 0.41 0.48 0.60 0.69 0.68 0.76 0.94 0.84 0.68 0.60 0.50 0.43 0.42 0.47 0.51 0.59 0.62 0.57 0.55 0.56 0.63 0.73 0.88 1.05 1.17 1.19 1.16 1.07 1.07 1.13 1.09 1.00 0.92 0.92
0.17 0.28 0.40 0.34 0.38 0.55 0.50 0.34 0.40 0.52 0.47 0.49 0.61 0.67 0.73 1.03 1.20 0.82 0.59 0.55 0.49 0.42 0.41 0.43 0.47 0.49 0.51 0.54 0.59 0.59 0.57 0.60 0.65 0.75 0.84 0.90 0.97 0.97 0.97 1.02 1.06 1.07 0.99 0.89
0.12 0.28 0.47 0.49 0.53 0.73 0.60 0.37 0.48 0.56 0.52 0.43 0.53 0.60 0.60 0.64 0.58 0.40 0.28 0.29 0.34 0.30 0.29 0.29 0.30 0.33 0.38 0.41 0.45 0.49 0.54 0.56 0.55 0.55 0.60 0.65 0.71 0.82 0.92 0.91 0.93 1.10 1.13 1.03
0.11 0.21 0.43 0.48 0.53 0.63 0.59 0.32 0.33 0.49 0.62 0.33 0.33 0.35 0.30 0.27 0.29 0.29 0.24 0.19 0.19 0.18 0.18 0.19 0.19 0.21 0.25 0.30 0.33 0.38 0.45 0.51 0.51 0.50 0.52 0.58 0.60 0.66 0.79 0.92 0.96 0.95 0.92 0.96
0.17 0.25 0.36 0.40 0.43 0.39 0.32 0.27 0.32 0.62 0.68 0.31 0.26 0.25 0.21 0.23 0.24 0.27 0.28 0.22 0.19 0.17 0.17 0.17 0.19 0.22 0.27 0.35 0.38 0.38 0.43 0.46 0.50 0.55 0.54 0.55 0.57 0.60 0.66 0.71 0.72 0.75 0.79 0.79
0.27 0.37 0.39 0.40 0.46 0.44 0.29 0.31 0.45 0.46 0.29 0.26 0.27 0.26 0.24 0.20 0.18 0.19 0.22 0.21 0.18 0.17 0.18 0.18 0.20 0.23 0.24 0.30 0.40 0.44 0.47 0.47 0.49 0.52 0.51 0.48 0.49 0.49 0.50 0.55 0.57 0.59 0.68 0.76
0.31 0.37 0.44 0.47 0.50 0.40 0.32 0.34 0.32 0.29 0.28 0.25 0.29 0.26 0.25 0.24 0.20 0.17 0.19 0.18 0.17 0.19 0.21 0.22 0.23 0.28 0.32 0.31 0.37 0.45 0.50 0.51 0.49 0.48 0.45 0.47 0.48 0.47 0.43 0.46 0.52 0.59 0.63 0.66
0.26 0.23 0.30 0.36 0.34 0.29 0.28 0.27 0.26 0.26 0.27 0.24 0.26 0.25 0.26 0.28 0.26 0.22 0.18 0.17 0.16 0.17 0.20 0.25 0.31 0.34 0.38 0.38 0.39 0.42 0.47 0.49 0.47 0.43 0.40 0.44 0.46 0.46 0.44 0.44 0.48 0.51 0.55 0.57
0.27 0.26 0.27 0.30 0.26 0.24 0.22 0.22 0.20 0.19 0.19 0.20 0.22 0.23 0.24 0.25 0.25 0.24 0.20 0.18 0.16 0.16 0.18 0.24 0.33 0.36 0.37 0.41 0.46 0.48 0.46 0.43 0.44 0.42 0.40 0.38 0.44 0.46 0.44 0.44 0.47 0.50 0.52 0.62
0.20 0.26 0.34 0.35 0.26 0.26 0.22 0.17 0.15 0.15 0.15 0.17 0.21 0.21 0.20 0.20 0.18 0.18 0.19 0.21 0.19 0.17 0.20 0.24 0.30 0.34 0.36 0.40 0.44 0.46 0.43 0.38 0.39 0.41 0.40 0.38 0.37 0.39 0.43 0.46 0.47 0.52 0.56 0.65